Volver al catálogo

FENGYUN 1C DEB

ActivoSSO
NORAD 37907·DEBRIS·🇨🇳 China

Lanzado May 10, 1999 desde Taiyuan Satellite Launch Center

Loading…

Próximos Pases (próximas 24 horas)

TLE

ActualizadoSource: Space-Track

Época: Sep 14, 2026, 13:54 UTC

1 37907U 99025ENG 26257.57923541  .00003147  00000-0  13123-2 0  9996
2 37907  99.0883  25.1213 0059518 113.8967 246.8462 14.26041398872010

Sigue FENGYUN 1C DEB en tiempo real con AllMySat

Download on the App Store